Gwinner, ND

3:03 PM CDT on April 30, 2017 (GMT -0500)
Gwinner-melroe

Weather History for KGWR - October, 2013

Change the Weather History Date:

Wednesday, October 2, 2013

  Actual Average (KP67) Record (KP67)
Temperature  
Mean Temperature 52 °F -  
Max Temperature 60 °F 67 °F 87 °F (1997)
Min Temperature 44 °F 41 °F 28 °F (1996)
Degree Days  
Heating Degree Days 13    
Growing Degree Days 2 (Base 50)    
Moisture  
Dew Point 46 °F    
Average Humidity 82    
Maximum Humidity 100    
Minimum Humidity 55    
Precipitation  
Precipitation 0.03 in - - ()
Sea Level Pressure  
Sea Level Pressure 29.95 in    
Wind  
Wind Speed 7 mph (NNE)    
Max Wind Speed 13 mph    
Max Gust Speed -    
Visibility 9 miles    
Events      
Averages and records for this station are not official NWS values.
T = Trace of Precipitation, MM = Missing Value Source: NWS Daily Summary

Daily Weather History Graph

Daily Weather History Graph

Search for Another Location

Airport or City:

Trip Planner

Search our weather history database for the weather conditions in past years. The results will help you decide how hot, cold, wet, or windy it might be!

Date:

Astronomy

Oct. 02, 2013 Rise Set
Actual Time 7:30 AM CDT 7:08 PM CDT
Civil Twilight 7:00 AM CDT 7:37 PM CDT
Nautical Twilight 6:25 AM CDT 8:12 PM CDT
Astronomical Twilight 5:50 AM CDT 8:47 PM CDT
Moon 4:58 AM CDT (10/2) 5:49 PM CDT (10/2)
Length of Visible Light 12h 37m
Length of Day
11h 37m
Waning Crescent, 6% of the Moon is Illuminated
Oct 2
Waning Crescent
Oct 4
New
Oct 11
First Quarter
Oct 18
Full
Oct 26
Last Quarter

Hourly Weather History & Observations

Time (CDT) Temp. Windchill Dew Point Humidity Pressure Visibility Wind Dir Wind Speed Gust Speed Precip Events Conditions
12:15 AM 46.4 °F 42.9 °F 41.0 °F 81% 29.98 in 10.0 mi SSW 6.9 mph - 0.00 in   Clear
12:35 AM 44.6 °F 40.7 °F 42.8 °F 93% 29.98 in 10.0 mi SSW 6.9 mph - 0.00 in   Clear
12:55 AM 44.6 °F 41.4 °F 41.0 °F 87% 29.98 in 10.0 mi SW 5.8 mph - 0.00 in   Clear
1:15 AM 44.6 °F 40.7 °F 41.0 °F 87% 29.98 in 10.0 mi South 6.9 mph - 0.00 in   Clear
1:35 AM 44.6 °F 40.7 °F 42.8 °F 93% 29.97 in 10.0 mi SSW 6.9 mph - 0.00 in   Clear
1:55 AM 44.6 °F 40.7 °F 41.0 °F 87% 29.98 in 10.0 mi SW 6.9 mph - 0.00 in   Clear
2:15 AM 44.6 °F 40.2 °F 39.2 °F 81% 29.98 in 10.0 mi SW 8.1 mph - 0.00 in   Clear
2:35 AM 44.6 °F 40.2 °F 39.2 °F 81% 29.98 in 10.0 mi WSW 8.1 mph - 0.00 in   Clear
2:55 AM 44.6 °F 40.7 °F 39.2 °F 81% 29.98 in 10.0 mi WSW 6.9 mph - 0.00 in   Clear
3:15 AM 44.6 °F 41.4 °F 39.2 °F 81% 29.98 in 10.0 mi WSW 5.8 mph - 0.00 in   Clear
3:35 AM 44.6 °F 41.4 °F 39.2 °F 81% 29.98 in 10.0 mi West 5.8 mph - 0.00 in   Clear
3:55 AM 44.6 °F 42.2 °F 39.2 °F 81% 29.97 in 10.0 mi WSW 4.6 mph - 0.00 in   Clear
4:15 AM 44.6 °F 42.2 °F 39.2 °F 81% 29.96 in 10.0 mi WSW 4.6 mph - 0.00 in   Clear
4:35 AM 44.6 °F 42.2 °F 39.2 °F 81% 29.95 in 10.0 mi WSW 4.6 mph - 0.00 in   Clear
4:55 AM 44.6 °F 40.2 °F 41.0 °F 87% 29.95 in 10.0 mi SSW 8.1 mph - 0.00 in   Clear
5:15 AM 48.2 °F - 44.6 °F 87% 29.96 in 10.0 mi SW 6.9 mph - 0.00 in   Clear
5:35 AM 50.0 °F - 42.8 °F 76% 29.96 in 10.0 mi SW 4.6 mph - 0.00 in   Scattered Clouds
5:55 AM 50.0 °F - 44.6 °F 82% 29.96 in 10.0 mi West 4.6 mph - 0.00 in   Partly Cloudy
6:15 AM 50.0 °F - 46.4 °F 87% 29.95 in 10.0 mi Calm Calm - 0.00 in   Clear
6:35 AM 50.0 °F - 46.4 °F 87% 29.95 in 10.0 mi SSW 3.5 mph - 0.00 in   Partly Cloudy
6:55 AM 50.0 °F - 44.6 °F 82% 29.96 in 10.0 mi WSW 3.5 mph - 0.00 in   Scattered Clouds
7:15 AM 50.0 °F - 46.4 °F 87% 29.95 in 10.0 mi West 3.5 mph - 0.00 in   Partly Cloudy
7:35 AM 50.0 °F - 46.4 °F 87% 29.94 in 10.0 mi Calm Calm - 0.00 in   Clear
7:55 AM 51.8 °F - 46.4 °F 82% 29.94 in 10.0 mi ENE 4.6 mph - 0.00 in   Clear
8:15 AM 51.8 °F - 46.4 °F 82% 29.96 in 10.0 mi NNE 4.6 mph - 0.00 in   Clear
8:35 AM 51.8 °F - 46.4 °F 82% 29.96 in 10.0 mi NNE 6.9 mph - 0.00 in   Clear
8:55 AM 51.8 °F - 46.4 °F 82% 29.97 in 10.0 mi NNE 4.6 mph - 0.00 in   Clear
9:15 AM 53.6 °F - 46.4 °F 77% 29.97 in 10.0 mi NE 5.8 mph - 0.00 in   Clear
9:35 AM 53.6 °F - 46.4 °F 77% 29.96 in 9.0 mi NE 5.8 mph - 0.00 in   Clear
9:55 AM 53.6 °F - 44.6 °F 72% 29.97 in 8.0 mi NE 8.1 mph - 0.00 in   Clear
10:15 AM 53.6 °F - 46.4 °F 77% 29.97 in 5.0 mi ENE 8.1 mph - 0.00 in   Clear
10:35 AM 55.4 °F - 44.6 °F 67% 29.95 in 2.5 mi ENE 6.9 mph - 0.00 in   Partly Cloudy
10:55 AM 55.4 °F - 44.6 °F 67% 29.94 in 3.0 mi ENE 6.9 mph - 0.00 in   Clear
11:15 AM 57.2 °F - 44.6 °F 63% 29.95 in 7.0 mi NNE 9.2 mph - 0.00 in   Partly Cloudy
11:35 AM 59.0 °F - 44.6 °F 59% 29.96 in 7.0 mi NNE 6.9 mph - 0.00 in   Clear
11:55 AM 60.8 °F - 44.6 °F 55% 29.95 in 5.0 mi NE 8.1 mph - 0.00 in   Clear
12:15 PM 59.0 °F - 44.6 °F 59% 29.94 in 10.0 mi NE 9.2 mph - 0.00 in   Mostly Cloudy
12:35 PM 59.0 °F - 44.6 °F 59% 29.93 in 10.0 mi NE 10.4 mph - 0.00 in   Mostly Cloudy
12:55 PM 60.8 °F - 44.6 °F 55% 29.92 in 10.0 mi NE 12.7 mph - 0.00 in   Partly Cloudy
1:15 PM 60.8 °F - 44.6 °F 55% 29.91 in 10.0 mi NE 10.4 mph - 0.00 in   Mostly Cloudy
1:35 PM 60.8 °F - 44.6 °F 55% 29.91 in 10.0 mi ENE 10.4 mph - 0.00 in   Overcast
1:55 PM 60.8 °F - 44.6 °F 55% 29.90 in 10.0 mi ENE 11.5 mph - 0.00 in   Mostly Cloudy
2:15 PM 60.8 °F - 44.6 °F 55% 29.90 in 10.0 mi ENE 10.4 mph - 0.00 in   Overcast
2:35 PM 59.0 °F - 48.2 °F 67% 29.91 in 9.0 mi NE 10.4 mph - 0.00 in   Overcast
2:55 PM 55.4 °F - 51.8 °F 88% 29.91 in 3.0 mi NE 11.5 mph - 0.03 in   Mostly Cloudy
3:15 PM 55.4 °F - 51.8 °F 88% 29.92 in 10.0 mi NE 10.4 mph - 0.00 in   Mostly Cloudy
3:35 PM 55.4 °F - 51.8 °F 88% 29.94 in 10.0 mi NNE 9.2 mph - 0.00 in   Overcast
3:55 PM 55.4 °F - 51.8 °F 88% 29.93 in 10.0 mi NE 9.2 mph - 0.00 in   Overcast
4:15 PM 57.2 °F - 51.8 °F 82% 29.93 in 10.0 mi ENE 9.2 mph - 0.00 in   Overcast
4:35 PM 57.2 °F - 48.2 °F 72% 29.92 in 10.0 mi ENE 11.5 mph - 0.00 in   Overcast
4:55 PM 57.2 °F - 48.2 °F 72% 29.93 in 10.0 mi NE 6.9 mph - 0.00 in   Overcast
5:15 PM 55.4 °F - 51.8 °F 88% 29.93 in 10.0 mi ENE 6.9 mph - 0.00 in   Overcast
5:35 PM 57.2 °F - 51.8 °F 82% 29.93 in 10.0 mi ENE 8.1 mph - 0.00 in   Overcast
5:55 PM 57.2 °F - 51.8 °F 82% 29.93 in 10.0 mi ENE 10.4 mph - 0.00 in   Mostly Cloudy
6:15 PM 55.4 °F - 51.8 °F 88% 29.92 in 10.0 mi ENE 10.4 mph - 0.00 in   Mostly Cloudy
6:35 PM 57.2 °F - 51.8 °F 82% 29.93 in 10.0 mi ENE 9.2 mph - 0.00 in   Overcast
6:55 PM 55.4 °F - 51.8 °F 88% 29.94 in 10.0 mi NNE 6.9 mph - 0.00 in   Scattered Clouds
7:15 PM 53.6 °F - 51.8 °F 94% 29.95 in 10.0 mi North 5.8 mph - 0.00 in   Scattered Clouds
7:35 PM 51.8 °F - 50.0 °F 94% 29.95 in 10.0 mi North 6.9 mph - 0.00 in   Partly Cloudy
7:55 PM 51.8 °F - 50.0 °F 94% 29.96 in 10.0 mi North 6.9 mph - 0.00 in   Clear
8:15 PM 50.0 °F - 50.0 °F 100% 29.96 in 10.0 mi NNE 6.9 mph - 0.00 in   Clear
8:35 PM 50.0 °F - 48.2 °F 94% 29.97 in 10.0 mi North 6.9 mph - 0.00 in   Clear
8:55 PM 50.0 °F - 48.2 °F 94% 29.97 in 10.0 mi North 6.9 mph - 0.00 in   Clear
9:15 PM 48.2 °F - 48.2 °F 100% 29.97 in 10.0 mi North 8.1 mph - 0.00 in   Clear
9:35 PM 48.2 °F - 46.4 °F 93% 29.98 in 10.0 mi North 6.9 mph - 0.00 in   Clear
9:55 PM 48.2 °F - 46.4 °F 93% 29.98 in 10.0 mi North 6.9 mph - 0.00 in   Clear
10:15 PM 46.4 °F 43.5 °F 46.4 °F 100% 29.99 in 10.0 mi NNE 5.8 mph - 0.00 in   Clear
10:35 PM 46.4 °F 43.5 °F 46.4 °F 100% 29.99 in 10.0 mi North 5.8 mph - 0.00 in   Clear
10:55 PM 46.4 °F 43.5 °F 46.4 °F 100% 29.99 in 10.0 mi North 5.8 mph - 0.00 in   Clear
11:15 PM 46.4 °F 43.5 °F 44.6 °F 93% 29.99 in 10.0 mi North 5.8 mph - 0.00 in   Clear
11:35 PM 44.6 °F 42.2 °F 44.6 °F 100% 29.99 in 10.0 mi North 4.6 mph - 0.00 in   Clear
11:55 PM 44.6 °F 41.4 °F 42.8 °F 93% 29.97 in 10.0 mi NE 5.8 mph - 0.00 in   Clear